Wetterdaten: Woche 17.08.15 - 23.08.15 (KW34)
Datum Zeit Temperatur Luftfeuchte Luftdruck Niederschlag Windrichtung Sonnenschein Solar Wind
17.08.2015 00:00 13,6 C 91 % 1010,8 hPa 0,0 l/m N 0,00 h 0 W/m 0,0 km/h (0 Bft)
17.08.2015 01:00 13,1 C 93 % 1010,6 hPa 0,0 l/m N 0,00 h 0 W/m 0,0 km/h (0 Bft)
17.08.2015 02:00 12,8 C 94 % 1010,7 hPa 0,2 l/m N-NW 0,00 h 0 W/m 0,9 km/h (0 Bft)
17.08.2015 03:00 12,7 C 96 % 1010,8 hPa 0,0 l/m NW 0,00 h 0 W/m 6,4 km/h (2 Bft)
17.08.2015 04:00 12,8 C 96 % 1010,6 hPa 0,0 l/m W-NW 0,00 h 0 W/m 7,0 km/h (2 Bft)
17.08.2015 05:00 12,9 C 95 % 1010,5 hPa 0,0 l/m W-NW 0,00 h 0 W/m 8,6 km/h (2 Bft)
17.08.2015 06:00 12,9 C 93 % 1010,6 hPa 0,0 l/m W-NW 0,00 h 8 W/m 9,8 km/h (2 Bft)
17.08.2015 07:00 13,0 C 92 % 1010,7 hPa 0,0 l/m W-NW 0,00 h 43 W/m 11,2 km/h (2 Bft)
17.08.2015 08:00 13,4 C 90 % 1010,9 hPa 0,0 l/m W-NW 0,00 h 47 W/m 5,0 km/h (1 Bft)
17.08.2015 09:00 13,7 C 89 % 1011,0 hPa 0,0 l/m W-NW 0,00 h 58 W/m 5,0 km/h (1 Bft)
17.08.2015 10:00 14,0 C 88 % 1011,2 hPa 0,0 l/m W-NW 0,00 h 70 W/m 3,9 km/h (1 Bft)
17.08.2015 11:00 14,3 C 87 % 1011,2 hPa 0,0 l/m W-NW 0,00 h 65 W/m 1,7 km/h (1 Bft)
17.08.2015 12:00 14,8 C 87 % 1011,3 hPa 0,0 l/m W-NW 0,00 h 148 W/m 5,6 km/h (1 Bft)
17.08.2015 13:00 15,7 C 84 % 1011,1 hPa 0,0 l/m SW 0,00 h 217 W/m 8,2 km/h (2 Bft)
17.08.2015 14:00 16,1 C 85 % 1011,1 hPa 0,0 l/m W-SW 0,00 h 205 W/m 8,6 km/h (2 Bft)
17.08.2015 15:00 16,1 C 84 % 1010,9 hPa 0,0 l/m W-SW 0,00 h 159 W/m 0,8 km/h (0 Bft)
17.08.2015 16:00 17,0 C 77 % 1010,8 hPa 0,0 l/m W-SW 0,17 h 279 W/m 9,0 km/h (2 Bft)
17.08.2015 17:00 17,3 C 71 % 1010,7 hPa 0,0 l/m N-NO 0,08 h 163 W/m 9,7 km/h (2 Bft)
17.08.2015 18:00 16,9 C 69 % 1010,6 hPa 0,0 l/m N-NO 0,00 h 74 W/m 4,1 km/h (1 Bft)
17.08.2015 19:00 16,8 C 73 % 1010,8 hPa 0,0 l/m N 0,00 h 40 W/m 1,2 km/h (1 Bft)
17.08.2015 20:00 15,9 C 84 % 1011,2 hPa 0,0 l/m N 0,00 h 7 W/m 0,0 km/h (0 Bft)
17.08.2015 21:00 15,1 C 86 % 1011,6 hPa 0,0 l/m N-NO 0,00 h 0 W/m 0,8 km/h (0 Bft)
17.08.2015 22:00 14,8 C 86 % 1011,7 hPa 0,0 l/m N 0,00 h 0 W/m 0,0 km/h (0 Bft)
17.08.2015 23:00 14,5 C 88 % 1012,0 hPa 0,0 l/m N 0,00 h 0 W/m 0,0 km/h (0 Bft)
18.08.2015 00:00 14,0 C 89 % 1011,9 hPa 0,0 l/m N 0,00 h 0 W/m 0,0 km/h (0 Bft)
18.08.2015 01:00 13,5 C 91 % 1011,7 hPa 0,0 l/m N-NO 0,00 h 0 W/m 0,9 km/h (0 Bft)
18.08.2015 02:00 12,7 C 91 % 1011,7 hPa 0,0 l/m N 0,00 h 0 W/m 0,0 km/h (0 Bft)
18.08.2015 03:00 12,2 C 93 % 1011,8 hPa 0,0 l/m N 0,00 h 0 W/m 0,4 km/h (0 Bft)
18.08.2015 04:00 11,9 C 93 % 1011,9 hPa 0,0 l/m N 0,00 h 0 W/m 0,3 km/h (0 Bft)
18.08.2015 05:00 11,3 C 94 % 1011,8 hPa 0,0 l/m N 0,00 h 0 W/m 0,1 km/h (0 Bft)
18.08.2015 06:00 10,7 C 94 % 1012,0 hPa 0,0 l/m N 0,00 h 12 W/m 0,0 km/h (0 Bft)
18.08.2015 07:00 10,8 C 95 % 1012,5 hPa 0,0 l/m N 0,00 h 66 W/m 0,0 km/h (0 Bft)
18.08.2015 08:00 12,6 C 94 % 1012,5 hPa 0,0 l/m N-NO 0,58 h 203 W/m 3,6 km/h (1 Bft)
18.08.2015 09:00 14,6 C 87 % 1012,6 hPa 0,0 l/m N-NO 1,00 h 387 W/m 7,6 km/h (2 Bft)
18.08.2015 10:00 16,3 C 79 % 1012,9 hPa 0,0 l/m N-NO 1,00 h 570 W/m 6,9 km/h (2 Bft)
18.08.2015 11:00 17,4 C 72 % 1012,8 hPa 0,0 l/m N-NO 0,50 h 478 W/m 7,1 km/h (2 Bft)
18.08.2015 12:00 18,9 C 63 % 1012,6 hPa 0,0 l/m N-NO 0,92 h 778 W/m 9,0 km/h (2 Bft)
18.08.2015 13:00 19,7 C 58 % 1012,5 hPa 0,0 l/m N 0,58 h 494 W/m 9,8 km/h (2 Bft)
18.08.2015 14:00 19,7 C 56 % 1012,4 hPa 0,0 l/m N-NW 0,08 h 360 W/m 7,9 km/h (2 Bft)
18.08.2015 15:00 20,3 C 55 % 1012,5 hPa 0,0 l/m NW 0,25 h 336 W/m 3,5 km/h (1 Bft)
18.08.2015 16:00 20,8 C 55 % 1012,4 hPa 0,0 l/m NO 0,17 h 271 W/m 8,4 km/h (2 Bft)
18.08.2015 17:00 20,8 C 55 % 1012,4 hPa 0,0 l/m NO 0,25 h 225 W/m 5,2 km/h (1 Bft)
18.08.2015 18:00 19,5 C 66 % 1012,6 hPa 0,0 l/m NO 0,00 h 30 W/m 0,9 km/h (0 Bft)
18.08.2015 19:00 18,4 C 67 % 1012,8 hPa 0,0 l/m N-NO 0,00 h 10 W/m 9,1 km/h (2 Bft)
18.08.2015 20:00 17,6 C 70 % 1013,4 hPa 0,0 l/m N-NO 0,00 h 5 W/m 8,1 km/h (2 Bft)
18.08.2015 21:00 17,0 C 76 % 1014,2 hPa 0,0 l/m N 0,00 h 0 W/m 1,2 km/h (1 Bft)
18.08.2015 22:00 16,0 C 84 % 1014,5 hPa 0,4 l/m N 0,00 h 0 W/m 0,1 km/h (0 Bft)
18.08.2015 23:00 15,0 C 89 % 1014,8 hPa 0,4 l/m N 0,00 h 0 W/m 0,4 km/h (0 Bft)
19.08.2015 00:00 14,4 C 92 % 1014,9 hPa 0,0 l/m NO 0,00 h 0 W/m 2,9 km/h (1 Bft)
19.08.2015 01:00 14,1 C 93 % 1015,0 hPa 0,2 l/m NO 0,00 h 0 W/m 2,0 km/h (1 Bft)
19.08.2015 02:00 13,8 C 94 % 1015,0 hPa 1,2 l/m NO 0,00 h 0 W/m 1,9 km/h (1 Bft)
19.08.2015 03:00 13,5 C 95 % 1015,2 hPa 2,2 l/m NO 0,00 h 0 W/m 1,7 km/h (1 Bft)
19.08.2015 04:00 13,3 C 95 % 1015,3 hPa 3,0 l/m NO 0,00 h 0 W/m 5,7 km/h (1 Bft)
19.08.2015 05:00 13,1 C 96 % 1015,3 hPa 3,4 l/m NO 0,00 h 0 W/m 5,7 km/h (1 Bft)
19.08.2015 06:00 12,9 C 97 % 1015,4 hPa 0,8 l/m N-NO 0,00 h 5 W/m 4,9 km/h (1 Bft)
19.08.2015 07:00 12,8 C 97 % 1015,8 hPa 0,4 l/m N-NO 0,00 h 7 W/m 6,8 km/h (2 Bft)
19.08.2015 08:00 12,9 C 97 % 1016,3 hPa 0,0 l/m N-NO 0,00 h 18 W/m 4,4 km/h (1 Bft)
19.08.2015 09:00 13,2 C 98 % 1016,3 hPa 0,0 l/m N-NO 0,00 h 41 W/m 4,5 km/h (1 Bft)
19.08.2015 10:00 13,4 C 98 % 1016,7 hPa 0,0 l/m N-NO 0,00 h 59 W/m 3,5 km/h (1 Bft)
19.08.2015 11:00 13,8 C 98 % 1017,1 hPa 0,0 l/m N-NO 0,00 h 70 W/m 3,5 km/h (1 Bft)
19.08.2015 12:00 14,3 C 97 % 1017,0 hPa 0,0 l/m N-NO 0,00 h 149 W/m 7,1 km/h (2 Bft)
19.08.2015 13:00 15,0 C 92 % 1017,2 hPa 0,0 l/m N-NO 0,00 h 121 W/m 7,0 km/h (2 Bft)
19.08.2015 14:00 14,8 C 92 % 1017,6 hPa 2,2 l/m N 0,00 h 42 W/m 0,8 km/h (0 Bft)
19.08.2015 15:00 14,5 C 94 % 1017,9 hPa 0,2 l/m N-NO 0,00 h 73 W/m 1,6 km/h (1 Bft)
19.08.2015 16:00 14,3 C 92 % 1018,5 hPa 0,2 l/m N 0,00 h 52 W/m 0,1 km/h (0 Bft)
19.08.2015 17:00 14,3 C 94 % 1018,7 hPa 0,6 l/m N 0,00 h 28 W/m 0,0 km/h (0 Bft)
19.08.2015 18:00 14,0 C 94 % 1019,0 hPa 0,0 l/m N 0,00 h 28 W/m 0,3 km/h (0 Bft)
19.08.2015 19:00 13,7 C 95 % 1019,1 hPa 0,0 l/m N 0,00 h 18 W/m 0,0 km/h (0 Bft)
19.08.2015 20:00 13,5 C 95 % 1019,5 hPa 0,0 l/m N 0,00 h 6 W/m 0,0 km/h (0 Bft)
19.08.2015 21:00 13,4 C 96 % 1020,1 hPa 0,0 l/m N-NO 0,00 h 0 W/m 0,4 km/h (0 Bft)
19.08.2015 22:00 13,2 C 96 % 1020,3 hPa 0,0 l/m N-NO 0,00 h 0 W/m 0,9 km/h (0 Bft)
19.08.2015 23:00 13,3 C 97 % 1020,6 hPa 0,0 l/m N 0,00 h 0 W/m 0,1 km/h (0 Bft)
20.08.2015 00:00 13,2 C 97 % 1020,7 hPa 0,0 l/m N 0,00 h 0 W/m 0,0 km/h (0 Bft)
20.08.2015 01:00 12,9 C 97 % 1020,6 hPa 0,0 l/m N 0,00 h 0 W/m 0,0 km/h (0 Bft)
20.08.2015 02:00 12,7 C 97 % 1020,4 hPa 0,0 l/m N 0,00 h 0 W/m 0,0 km/h (0 Bft)
20.08.2015 03:00 12,6 C 97 % 1020,4 hPa 0,0 l/m N 0,00 h 0 W/m 0,0 km/h (0 Bft)
20.08.2015 04:00 12,6 C 98 % 1020,6 hPa 0,0 l/m N 0,00 h 0 W/m 0,0 km/h (0 Bft)
20.08.2015 05:00 12,4 C 98 % 1020,5 hPa 0,0 l/m N 0,00 h 0 W/m 0,0 km/h (0 Bft)
20.08.2015 06:00 12,2 C 98 % 1020,7 hPa 0,0 l/m N 0,00 h 10 W/m 0,0 km/h (0 Bft)
20.08.2015 07:00 12,1 C 98 % 1021,1 hPa 0,2 l/m N 0,00 h 39 W/m 0,0 km/h (0 Bft)
20.08.2015 08:00 12,4 C 98 % 1021,5 hPa 0,0 l/m N 0,08 h 103 W/m 0,0 km/h (0 Bft)
20.08.2015 09:00 13,7 C 97 % 1021,7 hPa 0,0 l/m N-NO 0,25 h 225 W/m 1,9 km/h (1 Bft)
20.08.2015 10:00 15,2 C 90 % 1021,8 hPa 0,0 l/m N-NO 0,33 h 300 W/m 2,8 km/h (1 Bft)
20.08.2015 11:00 16,4 C 81 % 1021,7 hPa 0,0 l/m N-NO 0,00 h 259 W/m 4,9 km/h (1 Bft)
20.08.2015 12:00 17,2 C 79 % 1021,8 hPa 0,0 l/m N-NO 0,00 h 221 W/m 6,8 km/h (2 Bft)
20.08.2015 13:00 17,3 C 78 % 1021,9 hPa 0,0 l/m N-NO 0,00 h 136 W/m 7,9 km/h (2 Bft)
20.08.2015 14:00 17,2 C 78 % 1022,1 hPa 0,0 l/m N-NO 0,00 h 147 W/m 7,9 km/h (2 Bft)
20.08.2015 15:00 18,1 C 75 % 1021,8 hPa 0,0 l/m N-NO 0,42 h 379 W/m 10,1 km/h (2 Bft)
20.08.2015 16:00 18,8 C 70 % 1021,6 hPa 0,0 l/m O-NO 0,42 h 322 W/m 12,2 km/h (2 Bft)
20.08.2015 17:00 19,3 C 67 % 1021,4 hPa 0,0 l/m O 0,50 h 322 W/m 12,1 km/h (2 Bft)
20.08.2015 18:00 18,8 C 68 % 1021,6 hPa 0,0 l/m O-NO 0,42 h 147 W/m 10,1 km/h (2 Bft)
20.08.2015 19:00 17,9 C 72 % 1021,9 hPa 0,0 l/m O-NO 0,33 h 66 W/m 7,4 km/h (2 Bft)
20.08.2015 20:00 16,7 C 78 % 1022,3 hPa 0,0 l/m N 0,08 h 11 W/m 0,0 km/h (0 Bft)
20.08.2015 21:00 15,1 C 83 % 1022,7 hPa 0,0 l/m N 0,00 h 0 W/m 0,0 km/h (0 Bft)
20.08.2015 22:00 13,8 C 88 % 1022,7 hPa 0,0 l/m N 0,00 h 0 W/m 0,1 km/h (0 Bft)
20.08.2015 23:00 13,3 C 92 % 1023,0 hPa 0,0 l/m O-NO 0,00 h 0 W/m 1,5 km/h (1 Bft)
21.08.2015 00:00 12,9 C 92 % 1022,8 hPa 0,0 l/m N 0,00 h 0 W/m 0,5 km/h (0 Bft)
21.08.2015 01:00 12,1 C 93 % 1022,6 hPa 0,0 l/m O-NO 0,00 h 0 W/m 2,1 km/h (1 Bft)
21.08.2015 02:00 11,6 C 94 % 1022,4 hPa 0,0 l/m O-NO 0,00 h 0 W/m 1,5 km/h (1 Bft)
21.08.2015 03:00 11,4 C 95 % 1022,2 hPa 0,0 l/m N 0,00 h 0 W/m 0,0 km/h (0 Bft)
21.08.2015 04:00 11,7 C 96 % 1022,0 hPa 0,0 l/m N 0,00 h 0 W/m 0,1 km/h (0 Bft)
21.08.2015 05:00 11,7 C 96 % 1022,0 hPa 0,0 l/m N 0,00 h 0 W/m 0,1 km/h (0 Bft)
21.08.2015 06:00 11,1 C 96 % 1022,3 hPa 0,0 l/m N 0,00 h 10 W/m 0,7 km/h (0 Bft)
21.08.2015 07:00 10,9 C 96 % 1022,8 hPa 0,0 l/m O-NO 0,00 h 51 W/m 0,8 km/h (0 Bft)
21.08.2015 08:00 11,9 C 97 % 1022,9 hPa 0,0 l/m O-NO 0,42 h 180 W/m 2,9 km/h (1 Bft)
21.08.2015 09:00 14,6 C 92 % 1022,9 hPa 0,0 l/m O-NO 1,00 h 409 W/m 4,5 km/h (1 Bft)
21.08.2015 10:00 17,1 C 79 % 1022,8 hPa 0,0 l/m O-NO 1,00 h 568 W/m 5,8 km/h (1 Bft)
21.08.2015 11:00 18,4 C 72 % 1022,5 hPa 0,0 l/m O-NO 0,92 h 670 W/m 7,3 km/h (2 Bft)
21.08.2015 12:00 19,5 C 63 % 1022,2 hPa 0,0 l/m O 0,92 h 738 W/m 9,5 km/h (2 Bft)
21.08.2015 13:00 21,0 C 57 % 1021,7 hPa 0,0 l/m O-NO 0,83 h 733 W/m 7,2 km/h (2 Bft)
21.08.2015 14:00 21,2 C 56 % 1021,4 hPa 0,0 l/m NO 0,83 h 773 W/m 9,0 km/h (2 Bft)
21.08.2015 15:00 22,0 C 53 % 1021,0 hPa 0,0 l/m O-NO 0,75 h 572 W/m 10,7 km/h (2 Bft)
21.08.2015 16:00 22,8 C 51 % 1020,6 hPa 0,0 l/m O-NO 0,92 h 563 W/m 10,3 km/h (2 Bft)
21.08.2015 17:00 23,2 C 48 % 1020,2 hPa 0,0 l/m NO 0,92 h 433 W/m 9,3 km/h (2 Bft)
21.08.2015 18:00 22,8 C 50 % 1020,0 hPa 0,0 l/m O-NO 1,00 h 266 W/m 11,1 km/h (2 Bft)
21.08.2015 19:00 21,9 C 55 % 1019,9 hPa 0,0 l/m O-NO 0,42 h 71 W/m 7,4 km/h (2 Bft)
21.08.2015 20:00 20,0 C 66 % 1020,0 hPa 0,0 l/m N 0,00 h 9 W/m 0,0 km/h (0 Bft)
21.08.2015 21:00 17,1 C 74 % 1020,4 hPa 0,0 l/m N 0,00 h 0 W/m 0,0 km/h (0 Bft)
21.08.2015 22:00 15,2 C 80 % 1020,2 hPa 0,0 l/m N 0,00 h 0 W/m 0,5 km/h (0 Bft)
21.08.2015 23:00 14,2 C 83 % 1020,1 hPa 0,0 l/m N 0,00 h 0 W/m 0,0 km/h (0 Bft)
22.08.2015 00:00 13,4 C 87 % 1019,6 hPa 0,0 l/m N 0,00 h 0 W/m 0,3 km/h (0 Bft)
22.08.2015 01:00 12,8 C 89 % 1019,3 hPa 0,0 l/m O-NO 0,00 h 0 W/m 3,6 km/h (1 Bft)
22.08.2015 02:00 12,5 C 91 % 1018,8 hPa 0,0 l/m N-NO 0,00 h 0 W/m 8,0 km/h (2 Bft)
22.08.2015 03:00 12,3 C 92 % 1018,4 hPa 0,0 l/m N-NO 0,00 h 0 W/m 4,4 km/h (1 Bft)
22.08.2015 04:00 11,8 C 91 % 1018,2 hPa 0,0 l/m N 0,00 h 0 W/m 0,1 km/h (0 Bft)
22.08.2015 05:00 11,5 C 93 % 1018,0 hPa 0,0 l/m N 0,00 h 0 W/m 1,3 km/h (1 Bft)
22.08.2015 06:00 11,4 C 94 % 1017,9 hPa 0,0 l/m N 0,00 h 14 W/m 1,5 km/h (1 Bft)
22.08.2015 07:00 11,9 C 95 % 1017,7 hPa 0,0 l/m N-NO 0,00 h 66 W/m 1,3 km/h (1 Bft)
22.08.2015 08:00 13,9 C 91 % 1017,7 hPa 0,0 l/m N-NO 1,00 h 244 W/m 6,4 km/h (2 Bft)
22.08.2015 09:00 16,3 C 82 % 1017,5 hPa 0,0 l/m NO 1,00 h 409 W/m 9,3 km/h (2 Bft)
22.08.2015 10:00 18,6 C 72 % 1017,2 hPa 0,0 l/m O-NO 0,92 h 540 W/m 14,5 km/h (3 Bft)
22.08.2015 11:00 20,1 C 63 % 1016,9 hPa 0,0 l/m O-SO 1,00 h 690 W/m 16,1 km/h (3 Bft)
22.08.2015 12:00 21,5 C 55 % 1016,4 hPa 0,0 l/m O-SO 1,00 h 764 W/m 18,0 km/h (3 Bft)
22.08.2015 13:00 22,8 C 48 % 1015,9 hPa 0,0 l/m O-SO 1,00 h 803 W/m 18,1 km/h (3 Bft)
22.08.2015 14:00 23,6 C 46 % 1015,1 hPa 0,0 l/m O-SO 1,00 h 782 W/m 17,3 km/h (3 Bft)
22.08.2015 15:00 24,7 C 42 % 1014,8 hPa 0,0 l/m O 1,00 h 716 W/m 14,4 km/h (3 Bft)
22.08.2015 16:00 25,1 C 41 % 1014,4 hPa 0,0 l/m O-SO 0,92 h 566 W/m 14,2 km/h (3 Bft)
22.08.2015 17:00 24,7 C 43 % 1013,7 hPa 0,0 l/m O-SO 1,00 h 453 W/m 16,1 km/h (3 Bft)
22.08.2015 18:00 23,9 C 45 % 1013,2 hPa 0,0 l/m O 0,83 h 219 W/m 14,8 km/h (3 Bft)
22.08.2015 19:00 22,9 C 46 % 1012,9 hPa 0,0 l/m O 0,33 h 63 W/m 11,8 km/h (2 Bft)
22.08.2015 20:00 21,1 C 52 % 1012,8 hPa 0,0 l/m O 0,00 h 9 W/m 5,2 km/h (1 Bft)
22.08.2015 21:00 18,6 C 62 % 1012,7 hPa 0,0 l/m N 0,00 h 0 W/m 0,0 km/h (0 Bft)
22.08.2015 22:00 16,3 C 68 % 1012,2 hPa 0,0 l/m N 0,00 h 0 W/m 1,1 km/h (0 Bft)
22.08.2015 23:00 15,0 C 72 % 1011,7 hPa 0,0 l/m O 0,00 h 0 W/m 2,0 km/h (1 Bft)
23.08.2015 00:00 14,1 C 77 % 1010,9 hPa 0,0 l/m O 0,00 h 0 W/m 2,9 km/h (1 Bft)
23.08.2015 01:00 13,5 C 79 % 1010,5 hPa 0,0 l/m O 0,00 h 0 W/m 3,9 km/h (1 Bft)
23.08.2015 02:00 13,1 C 80 % 1010,0 hPa 0,0 l/m O 0,00 h 0 W/m 1,9 km/h (1 Bft)
23.08.2015 03:00 12,5 C 81 % 1009,5 hPa 0,0 l/m N 0,00 h 0 W/m 3,5 km/h (1 Bft)
23.08.2015 04:00 11,9 C 83 % 1009,0 hPa 0,0 l/m O-NO 0,00 h 0 W/m 4,0 km/h (1 Bft)
23.08.2015 05:00 11,4 C 84 % 1008,9 hPa 0,0 l/m O-NO 0,00 h 0 W/m 5,1 km/h (1 Bft)
23.08.2015 06:00 11,0 C 86 % 1008,8 hPa 0,0 l/m N 0,00 h 9 W/m 2,4 km/h (1 Bft)
23.08.2015 07:00 11,3 C 87 % 1008,7 hPa 0,0 l/m O-NO 0,00 h 66 W/m 4,0 km/h (1 Bft)
23.08.2015 08:00 13,1 C 82 % 1008,5 hPa 0,0 l/m N 1,00 h 229 W/m 0,5 km/h (0 Bft)
23.08.2015 09:00 15,3 C 77 % 1008,1 hPa 0,0 l/m O-NO 1,00 h 394 W/m 3,7 km/h (1 Bft)
23.08.2015 10:00 17,1 C 72 % 1007,5 hPa 0,0 l/m O 0,92 h 530 W/m 5,5 km/h (1 Bft)
23.08.2015 11:00 19,5 C 66 % 1006,9 hPa 0,0 l/m O 0,92 h 679 W/m 7,9 km/h (2 Bft)
23.08.2015 12:00 21,2 C 63 % 1006,5 hPa 0,0 l/m SO 0,83 h 716 W/m 4,4 km/h (1 Bft)
23.08.2015 13:00 23,5 C 56 % 1005,8 hPa 0,0 l/m S-SO 1,00 h 772 W/m 6,3 km/h (2 Bft)
23.08.2015 14:00 24,6 C 53 % 1005,4 hPa 0,0 l/m S-SW 0,58 h 475 W/m 4,8 km/h (1 Bft)
23.08.2015 15:00 22,5 C 62 % 1005,2 hPa 0,0 l/m N 0,00 h 69 W/m 8,7 km/h (2 Bft)
23.08.2015 16:00 19,6 C 79 % 1005,5 hPa 0,2 l/m W-NW 0,00 h 56 W/m 9,0 km/h (2 Bft)
23.08.2015 17:00 18,3 C 88 % 1005,5 hPa 0,0 l/m N 0,00 h 46 W/m 9,9 km/h (2 Bft)
23.08.2015 18:00 17,9 C 90 % 1005,6 hPa 0,0 l/m N 0,00 h 55 W/m 6,0 km/h (2 Bft)
23.08.2015 19:00 17,6 C 90 % 1006,4 hPa 0,0 l/m N 0,00 h 12 W/m 1,7 km/h (1 Bft)
23.08.2015 20:00 17,3 C 91 % 1006,8 hPa 0,4 l/m N 0,00 h 0 W/m 0,0 km/h (0 Bft)
23.08.2015 21:00 16,7 C 93 % 1007,6 hPa 1,8 l/m NW 0,00 h 0 W/m 3,9 km/h (1 Bft)
23.08.2015 22:00 15,9 C 94 % 1007,3 hPa 0,4 l/m NW 0,00 h 0 W/m 2,1 km/h (1 Bft)
23.08.2015 23:00 15,8 C 94 % 1006,9 hPa 0,2 l/m N 0,00 h 0 W/m 0,0 km/h (0 Bft)
Min-Datum _ 18.08.15 22.08.15 23.08.15 - - - - 17.08.15
_ Min-Zeit 06:50 15:55 16:05 - - - - 00:00
Minimum _ 10,4 C 40 % 1005,0 hPa - - - - 0,0 km/h (0 Bft)
Max-Datum _ 22.08.15 20.08.15 20.08.15 19.08.15 - 17.08.15 18.08.15 22.08.15
_ Max-Zeit 16:15 06:25 23:50 05:05 - 16:45 12:50 14:45
Maximum _ 25,2 C 100 % 1023,1 hPa 3,4 l/m - 0,08 h 969 W/m 22,5 km/h
O-NO (4 Bft)
Durchschnitt _ 15,7 C 82 % 1015,4 hPa #18,6 l/m N-NO #35:35 h 247 W/m 4,5 km/h (1 Bft)